Regional Weather Roundup
Issued by NWS

Home | Current Version | Previous Version | Text Only | Print | Product List | Glossary Off
Versions: 1 2 3 4 5 6 7 8 9 10 11 12 13 14 15 16 17 18 19 20 21 22 23 24 25 26 27 28 29 30 31 32 33 34 35 36 37 38 39 40 41 42 43 44 45 46 47 48 49 50

000
ASUS43 KLSX 252207
RWRMO

WEATHER SUMMARY FOR MISSOURI
NATIONAL WEATHER SERVICE SPRINGFIELD MO
500 PM CDT TUE APR 25 2017

NOTE: "FAIR" INDICATES FEW OR NO CLOUDS BELOW 12,000 FEET WITH NO
       SIGNIFICANT WEATHER AND/OR OBSTRUCTIONS TO VISIBILITY.
       CURRENT SKY AND/OR WEATHER CONDITIONS ARE NOT AVAILABLE FOR
       CHILLICOTHE AND FARMINGTON.

MOZ001>031-035>038-043-044-053-054-252300-
...NORTHERN AND WESTERN MISSOURI...

CITY           SKY/WX    TMP DP  RH WIND       PRES   REMARKS
KANSAS CTY INT CLOUDY    71  57  61 SW9       29.42R
KANSAS C DTWN  CLOUDY    73  57  57 SW9       29.40R
LEE`S SUMMIT   CLOUDY    73  58  59 SW10      29.42R
ST JOSEPH      CLOUDY    70  56  61 SW3       29.41F
CHILLICOTHE      N/A     75  55  49 VRB5      29.41S
KIRKSVILLE     CLOUDY    76  53  44 S10       29.41F

$$
MOZ066>068-077>081-088>096-101>105-252300-
...SOUTHWEST MISSOURI...

CITY           SKY/WX    TMP DP  RH WIND       PRES   REMARKS
SPRINGFIELD    MOSUNNY   81  58  45 SW20G28   29.43S
JOPLIN         CLOUDY    79  59  50 SW18G26   29.42R
BRANSON        PTSUNNY   77  57  50 S13G21    29.48S

$$
MOZ032>034-039>042-045>050-055>058-069>072-252300-
...CENTRAL MISSOURI...

CITY           SKY/WX    TMP DP  RH WIND       PRES   REMARKS
COLUMBIA       CLOUDY    82  54  37 S20G31    29.40F
JEFFERSON CITY SUNNY     84  53  34 S18       29.40F
ROLLA          MOSUNNY   78  53  41 S24G30    29.45R
SEDALIA        PTSUNNY   79  57  46 S17G23    29.41S
WHITEMAN AFB   PTSUNNY   78  59  52 SW15      29.39S
OSAGE BEACH    MOSUNNY   81  56  42 S17G25    29.44F

$$
MOZ051-052-059>065-252300-
...EAST CENTRAL MISSOURI...

CITY           SKY/WX    TMP DP  RH WIND       PRES   REMARKS
ST LOUIS INTL  PTSUNNY   81  49  32 S22G33    29.47F
SPIRIT OF STL  PTSUNNY   81  47  30 S18G29    29.45F
ST CHARLES     MOSUNNY   79  49  34 SE28G35   29.45F

$$
MOZ072>076-082>087-097>100-106>115-252300-
...SOUTH CENTRAL AND SOUTHEAST MISSOURI...

CITY           SKY/WX    TMP DP  RH WIND       PRES   REMARKS
CAPE GIRARDEAU SUNNY     77  51  40 S18       29.57F
FARMINGTON     SUNNY     75  52  44 SE21G29   29.52F
POPLAR BLUFF   SUNNY     78  53  41 S18       29.56F
WEST PLAINS    SUNNY     76  52  43 S16G25    29.52F

$$



USA.gov is the U.S. government's official web portal to all federal, state and local government web resources and services.